Springfield, MO

6:21 AM CST on November 21, 2017 (GMT -0600)
Springfield-Branson Regional

Weather History for KSGF - February, 2015

Change the Weather History Date:

Monday, February 16, 2015

  Actual Average Record
Temperature  
Mean Temperature 16 °F 37 °F  
Max Temperature 23 °F 49 °F 75 °F (1976)
Min Temperature 8 °F 26 °F -1 °F (1958)
Degree Days  
Heating Degree Days 49 28  
Month to date heating degree days 485 473  
Since 1 July heating degree days 3193 3286  
Cooling Degree Days 0 0  
Month to date cooling degree days 0 0  
Year to date cooling degree days 0 0  
Moisture  
Dew Point 12 °F    
Average Humidity 78    
Maximum Humidity 88    
Minimum Humidity 68    
Precipitation  
Precipitation 0.39 in 0.09 in 1.64 in (2008)
Month to date precipitation 1.19 1.33  
Year to date precipitation 2.00 3.80  
Snow  
Snow 4.80 in - - ()
Month to date snowfall 5.7  
Since 1 July snowfall 8.2  
Snow Depth 4.00 in    
Sea Level Pressure  
Sea Level Pressure 30.10 in    
Wind  
Wind Speed 9 mph (NNE)    
Max Wind Speed 15 mph    
Max Gust Speed 18 mph    
Visibility 4 miles    
Events Fog , Snow    
T = Trace of Precipitation, MM = Missing Value Source: NWS Daily Summary

Daily Weather History Graph

Daily Weather History Graph

Search for Another Location

Airport or City:

Trip Planner

Search our weather history database for the weather conditions in past years. The results will help you decide how hot, cold, wet, or windy it might be!

Date:

Astronomy

Feb. 16, 2015 Rise Set
Actual Time 7:01 AM CST 5:54 PM CST
Civil Twilight 6:34 AM CST 6:20 PM CST
Nautical Twilight 6:04 AM CST 6:51 PM CST
Astronomical Twilight 5:34 AM CST 7:21 PM CST
Moon 4:54 AM CST (2/16) 3:35 PM CST (2/16)
Length of Visible Light 11h 45m
Length of Day
10h 52m
Waning Crescent, 7% of the Moon is Illuminated
Feb 16
Waning Crescent
Feb 18
New
Feb 25
First Quarter
Mar 5
Full
Mar 13
Last Quarter

Hourly Weather History & Observations

Time (CST) Temp. Windchill Dew Point Humidity Pressure Visibility Wind Dir Wind Speed Gust Speed Precip Events Conditions
12:01 AM 19.9 °F 7.9 °F 16.0 °F 85% 30.12 in 0.5 mi ENE 11.5 mph - 0.01 in Fog , Snow Snow
12:13 AM 19.0 °F 6.8 °F 16.0 °F 88% 30.12 in 0.8 mi ENE 11.5 mph - 0.03 in Snow Snow
12:27 AM 19.0 °F 10.0 °F 15.1 °F 85% 30.13 in 1.0 mi ENE 6.9 mph - 0.04 in Snow Snow
12:52 AM 18.0 °F 4.8 °F 14.0 °F 84% 30.16 in 2.0 mi ENE 12.7 mph - 0.05 in Snow Snow
12:59 AM 18.0 °F 6.1 °F 14.0 °F 84% 30.12 in 2.5 mi ENE 10.4 mph - 0.01 in Snow Snow
1:07 AM 18.0 °F 5.4 °F 14.0 °F 84% 30.11 in 4.0 mi NE 11.5 mph - 0.01 in Snow Snow
1:32 AM 18.0 °F 6.1 °F 14.0 °F 84% 30.13 in 1.8 mi NE 10.4 mph - 0.01 in Snow Snow
1:52 AM 18.0 °F 6.1 °F 14.0 °F 84% 30.15 in 1.0 mi NE 10.4 mph - 0.04 in Snow Snow
1:58 AM 17.1 °F 5.0 °F 14.0 °F 88% 30.10 in 0.8 mi ENE 10.4 mph - 0.01 in Snow Snow
2:14 AM 17.1 °F 5.0 °F 14.0 °F 88% 30.09 in 0.2 mi ENE 10.4 mph - 0.04 in Fog , Snow Snow
2:34 AM 17.1 °F 5.0 °F 12.9 °F 84% 30.08 in 0.5 mi NE 10.4 mph - 0.09 in Fog , Snow Snow
2:52 AM 17.1 °F 5.0 °F 12.9 °F 84% 30.13 in 0.5 mi ENE 10.4 mph - 0.11 in Fog , Snow Snow
3:30 AM 17.1 °F 5.8 °F 12.9 °F 84% 30.07 in 1.0 mi NE 9.2 mph - 0.06 in Snow Snow
3:39 AM 17.1 °F 4.3 °F 12.9 °F 84% 30.06 in 1.5 mi NE 11.5 mph - 0.06 in Snow Snow
3:52 AM 16.0 °F 4.4 °F 12.9 °F 88% 30.11 in 1.5 mi NE 9.2 mph - 0.06 in Snow Snow
4:28 AM 16.0 °F 5.3 °F 12.0 °F 84% 30.07 in 0.8 mi NE 8.1 mph - 0.03 in Snow Snow
4:52 AM 16.0 °F 3.6 °F 12.0 °F 84% 30.12 in 0.8 mi NE 10.4 mph - 0.05 in Snow Snow
5:01 AM 16.0 °F 3.6 °F 12.0 °F 84% 30.06 in 0.8 mi NE 10.4 mph - 0.01 in Snow Snow
5:07 AM 16.0 °F 4.4 °F 12.0 °F 84% 30.07 in 1.0 mi NE 9.2 mph - 0.02 in Snow Snow
5:40 AM 16.0 °F 6.3 °F 12.9 °F 88% 30.06 in 0.5 mi NE 6.9 mph - 0.02 in Fog , Snow Snow
5:52 AM 16.0 °F 6.3 °F 12.0 °F 84% 30.11 in 1.0 mi NE 6.9 mph - 0.04 in Snow Snow
6:02 AM 16.0 °F 3.6 °F 12.0 °F 84% 30.04 in 2.5 mi ENE 10.4 mph - 0.00 in Snow Snow
6:21 AM 16.0 °F 5.3 °F 12.0 °F 84% 30.04 in 1.2 mi NE 8.1 mph - 0.00 in Snow Snow
6:48 AM 15.8 °F 3.4 °F 12.2 °F 86% 30.05 in 3.0 mi NNE 10.4 mph - 0.01 in Snow Snow
6:52 AM 16.0 °F 4.4 °F 12.0 °F 84% 30.10 in 4.0 mi NNE 9.2 mph - 0.01 in Snow Snow
7:52 AM 16.0 °F 3.6 °F 10.9 °F 81% 30.13 in 9.0 mi North 10.4 mph - 0.00 in Snow Snow
8:10 AM 16.0 °F 2.9 °F 10.9 °F 81% 30.07 in 2.5 mi North 11.5 mph - 0.00 in Snow Snow
8:20 AM 16.0 °F 2.3 °F 10.9 °F 81% 30.06 in 9.0 mi NNE 12.7 mph - 0.00 in Snow Snow
8:34 AM 16.0 °F 3.6 °F 10.9 °F 81% 30.09 in 9.0 mi North 10.4 mph - 0.00 in Snow Snow
8:43 AM 16.0 °F 1.1 °F 10.9 °F 81% 30.08 in 9.0 mi North 15.0 mph - 0.00 in Snow Snow
8:52 AM 16.0 °F 2.3 °F 10.9 °F 81% 30.14 in 9.0 mi North 12.7 mph - 0.00 in Snow Snow
9:31 AM 16.0 °F 4.4 °F 10.9 °F 81% 30.08 in 1.8 mi NNE 9.2 mph - 0.00 in Snow Snow
9:40 AM 16.0 °F 2.9 °F 10.9 °F 81% 30.08 in 0.5 mi North 11.5 mph - 0.00 in Snow Snow
9:49 AM 15.8 °F 4.2 °F 12.2 °F 86% 30.08 in 1.0 mi North 9.2 mph - 0.00 in Snow Snow
9:52 AM 16.0 °F 5.3 °F 12.0 °F 84% 30.13 in 1.0 mi NNE 8.1 mph - 0.01 in Snow Snow
10:13 AM 17.1 °F 5.8 °F 12.0 °F 81% 30.08 in 0.8 mi North 9.2 mph - 0.00 in Snow Snow
10:29 AM 17.1 °F 5.0 °F 10.0 °F 74% 30.09 in 2.0 mi NE 10.4 mph - 0.01 in Snow Snow
10:38 AM 17.1 °F 6.6 °F 12.0 °F 81% 30.09 in 2.0 mi NNE 8.1 mph - 0.01 in Snow Snow
10:44 AM 17.1 °F 5.0 °F 10.9 °F 77% 30.09 in 3.0 mi NNE 10.4 mph - 0.02 in Snow Snow
10:52 AM 17.1 °F 6.6 °F 10.9 °F 77% 30.15 in 4.0 mi NNE 8.1 mph - 0.02 in Snow Snow
11:03 AM 17.1 °F 7.6 °F 10.9 °F 77% 30.09 in 3.0 mi North 6.9 mph - 0.00 in Snow Snow
11:29 AM 17.1 °F 6.6 °F 10.9 °F 77% 30.09 in 2.5 mi North 8.1 mph - 0.00 in Snow Snow
11:38 AM 18.0 °F 6.1 °F 12.0 °F 78% 30.09 in 3.0 mi NNW 10.4 mph - 0.00 in Snow Snow
11:52 AM 18.0 °F 6.1 °F 10.9 °F 74% 30.14 in 3.0 mi NNE 10.4 mph - 0.00 in Snow Snow
11:57 AM 17.6 °F 5.7 °F 10.4 °F 73% 30.08 in 2.5 mi North 10.4 mph - N/A Snow Snow
12:14 PM 18.0 °F 4.2 °F 10.9 °F 74% 30.08 in 2.0 mi NNW 13.8 mph - 0.01 in Snow Snow
12:47 PM 19.4 °F 6.6 °F 12.2 °F 74% 30.07 in 3.0 mi North 12.7 mph - 0.01 in Snow Snow
12:52 PM 19.9 °F 7.3 °F 12.0 °F 71% 30.12 in 4.0 mi NNW 12.7 mph - 0.01 in Snow Snow
1:52 PM 21.0 °F 9.3 °F 12.9 °F 71% 30.09 in 9.0 mi NNW 11.5 mph - 0.00 in Snow Snow
2:31 PM 21.9 °F 9.2 °F 12.9 °F 68% 30.04 in 9.0 mi NNW 13.8 mph - 0.00 in Snow Snow
2:39 PM 21.0 °F 8.1 °F 12.9 °F 71% 30.04 in 9.0 mi NW 13.8 mph - 0.00 in Snow Snow
2:52 PM 21.9 °F 10.4 °F 12.9 °F 68% 30.10 in 9.0 mi NW 11.5 mph - 0.00 in Snow Snow
3:52 PM 21.9 °F 9.2 °F 14.0 °F 72% 30.11 in 9.0 mi NW 13.8 mph - 0.00 in Snow Snow
4:52 PM 21.0 °F 8.6 °F 12.9 °F 71% 30.12 in 9.0 mi NW 12.7 mph - 0.00 in Snow Snow
5:44 PM 19.0 °F 8.2 °F 12.0 °F 74% 30.08 in 10.0 mi NW 9.2 mph - 0.00 in   Scattered Clouds
5:52 PM 19.0 °F 8.2 °F 12.0 °F 74% 30.14 in 10.0 mi NW 9.2 mph - 0.00 in   Scattered Clouds
6:52 PM 17.1 °F 8.7 °F 10.9 °F 77% 30.16 in 10.0 mi NW 5.8 mph - N/A   Clear
7:52 PM 16.0 °F 6.3 °F 10.9 °F 81% 30.17 in 10.0 mi NW 6.9 mph - N/A   Mostly Cloudy
8:52 PM 19.0 °F 12.3 °F 12.9 °F 77% 30.18 in 10.0 mi NW 4.6 mph - N/A   Overcast
9:52 PM 19.4 °F 14.3 °F 12.2 °F 74% 30.12 in 10.0 mi WNW 3.5 mph - N/A   Overcast
10:52 PM 18.0 °F - 12.0 °F 78% 30.16 in 10.0 mi Calm Calm - N/A   Scattered Clouds
11:52 PM 10.9 °F 0.2 °F 7.0 °F 84% 30.17 in 9.0 mi SW 6.9 mph - N/A   Clear